Simultaneous Nadir Overpasses (SNOs) Predictions

Prediction of SNOs between GOES-16 and METOP-C Satellite Orbit:

Table of predicted SNOs for the next 14.0 days since TLE Epoch: 6/6/2020
Index Date Time (GOES-16) GOES-16 Lat,Lon METOP-C Lat,Lon Distance(km) Time Diff (sec)
1 06/07/2020 02:17:39 -0.02, -75.14 0.71, -71.97 362.76 80
2 06/08/2020 14:36:31 0.02, -75.17 0.32, -76.52 154.60 80
3 06/09/2020 14:18:31 0.02, -75.17 -0.78, -71.53 414.66 80
4 06/11/2020 02:37:31 -0.02, -75.15 -0.26, -76.12 111.08 80
5 06/12/2020 02:14:13 -0.01, -75.16 0.91, -71.14 458.71 80
6 06/13/2020 14:33:04 0.01, -75.19 0.14, -75.69 57.22 80
7 06/16/2020 02:34:05 -0.01, -75.20 -0.06, -75.29 11.47 80
8 06/18/2020 14:32:19 0.00, -75.26 -0.11, -74.88 44.18 80
9 06/20/2020 02:51:18 0.00, -75.26 -0.96, -79.46 479.39 80




NCC Satellite Simultaneous Nadir Overpasses (SNOs) Prediction Service
